Location: Alderney
(49.7170°N, 2.2000°W)
Time: 15:28:39
(UTC+01:00)

Envisat - Visible Passes

Search period start: 20 October 2017 00:00
Search period end: 29 October 2017 23:00
Orbit: 764 x 766 km, 98.2° (Epoch: 20 October)

Date Brightness Start Highest point End Pass type
(mag) Time Alt. Az. Time Alt. Az. Time Alt. Az.
20 Oct 3.5 19:57:55 34° E 19:58:53 38° ENE 20:03:34 10° N visible
20 Oct 4.4 21:38:08 34° W 21:38:08 34° W 21:42:35 10° NNW visible
21 Oct 4.3 19:20:56 18° E 19:22:31 21° ENE 19:26:14 10° N visible
21 Oct 3.2 21:01:09 70° W 21:01:09 70° W 21:06:09 10° NNW visible
21 Oct 5.9 22:41:22 10° W 22:41:22 10° W 22:41:45 10° WNW visible
22 Oct 4.8 18:44:42 10° ENE 18:46:20 11° NE 18:47:59 10° NNE visible
22 Oct 2.9 20:24:10 60° E 20:24:22 60° ENE 20:29:23 10° N visible
22 Oct 5.2 22:04:23 21° W 22:04:23 21° W 22:07:40 10° NW visible
23 Oct 3.7 19:47:11 30° ENE 19:47:52 31° ENE 19:52:19 10° N visible
23 Oct 4.1 21:27:24 40° WNW 21:27:24 40° WNW 21:31:36 10° NNW visible
24 Oct 4.4 19:10:11 16° ENE 19:11:33 18° NE 19:14:50 10° NNE visible
24 Oct 3.0 20:50:25 74° NNW 20:50:25 74° NNW 20:55:04 10° NNW visible
24 Oct 5.8 22:30:37 13° WNW 22:30:37 13° WNW 22:32:05 10° WNW visible
25 Oct 3.2 20:13:25 49° ENE 20:13:25 49° ENE 20:18:12 10° N visible
25 Oct 5.0 21:53:38 24° WNW 21:53:38 24° WNW 21:56:50 10° NW visible
26 Oct 3.9 19:36:26 26° ENE 19:36:51 26° ENE 19:41:02 10° N visible
26 Oct 4.0 21:16:39 44° WNW 21:16:39 44° WNW 21:20:35 10° NNW visible
27 Oct 4.6 18:59:27 14° ENE 19:00:35 15° NE 19:03:21 10° NNE visible
27 Oct 3.2 20:39:39 62° N 20:39:39 62° N 20:43:56 10° NNW visible
27 Oct 5.7 22:19:52 15° WNW 22:19:52 15° WNW 22:21:36 10° NW visible
28 Oct 3.5 20:02:40 40° NE 20:02:40 40° NE 20:06:59 10° N visible
28 Oct 4.9 21:42:53 27° WNW 21:42:53 27° WNW 21:45:55 10° NNW visible
29 Oct 4.2 18:25:40 22° ENE 18:25:51 22° ENE 18:29:43 10° N visible
29 Oct 3.9 20:05:53 45° NW 20:05:53 45° NW 20:09:32 10° NNW visible
